This is the latest recevied weather packets stored in our database for station/object IK6IHU-3. If no packets are shown the sender has not sent any weather packets the latest 10 day(s).
| Time | Temp. | Humidity | Pressure | Rain* | Wind** | Luminosity | Snow |
|---|---|---|---|---|---|---|---|
| 1777288504 | 21.67° C | 46% | 1017.4 hPa | 0 mm | - | 0 W/m² | - |
| 1777288444 | 21.67° C | 45% | 1017.4 hPa | 0 mm | - | 0 W/m² | - |
| 1777288384 | 21.67° C | 47% | 1017.3 hPa | 0 mm | - | 0 W/m² | - |
| 1777288324 | 21.11° C | 46% | 1017.3 hPa | 0 mm | - | 0 W/m² | - |
| 1777288264 | 21.67° C | 46% | 1017.2 hPa | 0 mm | - | 0 W/m² | - |
| 1777288204 | 21.67° C | 47% | 1017.3 hPa | 0 mm | - | 0 W/m² | - |
| 1777288145 | 21.67° C | 48% | 1017.1 hPa | 0 mm | - | 0 W/m² | - |
| 1777288084 | 21.67° C | 47% | 1017.3 hPa | 0 mm | - | 0 W/m² | - |
| 1777288024 | 21.67° C | 45% | 1017.2 hPa | 0 mm | - | 0 W/m² | - |
| 1777287964 | 21.67° C | 45% | 1017.3 hPa | 0 mm | - | 0 W/m² | - |
| 1777287904 | 21.67° C | 48% | 1017.2 hPa | 0 mm | - | 0 W/m² | - |
| 1777287844 | 21.67° C | 46% | 1017.2 hPa | 0 mm | - | 0 W/m² | - |
| 1777287784 | 21.67° C | 43% | 1017.2 hPa | 0 mm | - | 0 W/m² | - |
| 1777287724 | 22.22° C | 49% | 1017.3 hPa | 0 mm | - | 0 W/m² | - |
| 1777287664 | 22.22° C | 48% | 1017.3 hPa | 0 mm | - | 0 W/m² | - |
| 1777287544 | 21.67° C | 45% | 1017.3 hPa | 0 mm | - | 0 W/m² | - |
| 1777287484 | 22.22° C | 46% | 1017.4 hPa | 0 mm | - | 0 W/m² | - |
| 1777287065 | 22.22° C | 47% | 1017.4 hPa | 0 mm | - | 0 W/m² | - |
| 1777286824 | 21.67° C | 47% | 1017.3 hPa | 0 mm | - | 0 W/m² | - |
| 1777286765 | 21.67° C | 45% | 1017.4 hPa | 0 mm | - | 0 W/m² | - |
| 1777286705 | 22.22° C | 48% | 1017.4 hPa | 0 mm | - | 0 W/m² | - |
| 1777286584 | 22.22° C | 46% | 1017.5 hPa | 0 mm | - | 0 W/m² | - |
| 1777286464 | 21.67° C | 46% | 1017.5 hPa | 0 mm | - | 0 W/m² | - |
| 1777286404 | 22.22° C | 49% | 1017.3 hPa | 0 mm | - | 0 W/m² | - |
| 1777286344 | 21.67° C | 46% | 1017.4 hPa | 0 mm | - | 0 W/m² | - |
* Rain latest hour (hover to see other rain measurements)
** Current wind speed in m/s (hover to see current wind gust speed)